Time,TemperatureF,DewpointF,PressureIn,WindDirection,WindDirectionDegrees,WindSpeedMPH,WindSpeedGustMPH,Humidity,HourlyPrecipIn,Conditions,Clouds,dailyrainin,SoftwareType,DateUTC
2013-01-27 00:01:00,23.9,14.5,30.03,SSE,163,0.0,1.0,67,0.00,,,0.00,Wunderground v.1.15,2013-01-27 06:01:00,
2013-01-27 00:06:00,24.0,14.6,30.03,SW,222,0.0,1.0,67,0.00,,,0.00,Wunderground v.1.15,2013-01-27 06:06:00,
2013-01-27 00:11:00,24.0,14.6,30.03,ESE,108,0.0,1.0,67,0.00,,,0.00,Wunderground v.1.15,2013-01-27 06:11:00,
2013-01-27 00:16:00,24.1,14.7,30.03,ESE,105,0.0,1.0,67,0.00,,,0.00,Wunderground v.1.15,2013-01-27 06:16:00,
2013-01-27 00:22:00,24.2,14.8,30.03,ENE,75,0.0,1.0,67,0.00,,,0.00,Wunderground v.1.15,2013-01-27 06:22:00,
2013-01-27 00:27:00,24.4,15.0,30.03,SW,214,0.0,1.0,67,0.00,,,0.00,Wunderground v.1.15,2013-01-27 06:27:00,
2013-01-27 00:32:00,24.6,15.2,30.02,SSE,166,1.0,1.0,67,0.00,,,0.00,Wunderground v.1.15,2013-01-27 06:32:00,
2013-01-27 00:37:00,24.7,14.9,30.02,SW,225,1.0,1.0,66,0.00,,,0.00,Wunderground v.1.15,2013-01-27 06:37:00,
2013-01-27 00:42:00,24.7,15.3,30.02,ENE,75,0.0,2.0,67,0.00,,,0.00,Wunderground v.1.15,2013-01-27 06:42:00,
2013-01-27 00:48:00,24.8,15.4,30.02,South,174,0.0,3.0,67,0.00,,,0.00,Wunderground v.1.15,2013-01-27 06:48:00,
2013-01-27 00:53:00,24.8,15.4,30.02,SW,225,1.0,1.0,67,0.00,,,0.00,Wunderground v.1.15,2013-01-27 06:53:00,
2013-01-27 00:58:00,25.0,15.6,30.01,ESE,110,0.0,1.0,67,0.00,,,0.00,Wunderground v.1.15,2013-01-27 06:58:00,
2013-01-27 01:03:00,25.0,15.6,30.01,SW,228,0.0,1.0,67,0.00,,,0.00,Wunderground v.1.15,2013-01-27 07:03:00,
2013-01-27 01:08:00,25.0,15.6,30.01,SSW,211,0.0,1.0,67,0.00,,,0.00,Wunderground v.1.15,2013-01-27 07:08:00,
2013-01-27 01:13:00,25.0,15.6,30.01,NW,304,0.0,1.0,67,0.00,,,0.00,Wunderground v.1.15,2013-01-27 07:13:00,
2013-01-27 01:19:00,25.0,15.6,30.01,ENE,76,0.0,2.0,67,0.00,,,0.00,Wunderground v.1.15,2013-01-27 07:19:00,
2013-01-27 01:24:00,25.1,15.7,30.01,East,90,0.0,1.0,67,0.00,,,0.00,Wunderground v.1.15,2013-01-27 07:24:00,
2013-01-27 01:29:00,25.1,15.7,30.01,SSW,197,0.0,1.0,67,0.00,,,0.00,Wunderground v.1.15,2013-01-27 07:29:00,
2013-01-27 01:34:00,25.1,15.7,30.00,SW,235,0.0,1.0,67,0.00,,,0.00,Wunderground v.1.15,2013-01-27 07:34:00,
2013-01-27 01:39:00,25.5,16.1,30.00,ENE,70,1.0,1.0,67,0.00,,,0.00,Wunderground v.1.15,2013-01-27 07:39:00,
2013-01-27 01:45:00,25.5,16.4,30.00,SSE,148,0.0,1.0,68,0.00,,,0.00,Wunderground v.1.15,2013-01-27 07:45:00,
2013-01-27 01:50:00,25.5,16.4,30.00,East,98,0.0,1.0,68,0.00,,,0.00,Wunderground v.1.15,2013-01-27 07:50:00,
2013-01-27 01:55:00,25.7,16.3,30.00,ESE,108,0.0,1.0,67,0.00,,,0.00,Wunderground v.1.15,2013-01-27 07:55:00,
2013-01-27 02:00:00,26.0,16.5,30.00,WNW,283,1.0,1.0,67,0.00,,,0.00,Wunderground v.1.15,2013-01-27 08:00:00,
2013-01-27 02:05:00,26.1,16.6,30.00,ESE,113,1.0,2.0,67,0.00,,,0.00,Wunderground v.1.15,2013-01-27 08:05:00,
2013-01-27 02:10:00,26.2,16.7,30.00,SSE,165,0.0,1.0,67,0.00,,,0.00,Wunderground v.1.15,2013-01-27 08:10:00,
2013-01-27 02:16:00,26.4,16.9,30.00,SW,226,0.0,1.0,67,0.00,,,0.00,Wunderground v.1.15,2013-01-27 08:16:00,
2013-01-27 02:21:00,26.4,16.6,30.00,SSW,210,1.0,1.0,66,0.00,,,0.00,Wunderground v.1.15,2013-01-27 08:21:00,
2013-01-27 02:26:00,26.5,16.7,30.00,SSW,202,1.0,1.0,66,0.00,,,0.00,Wunderground v.1.15,2013-01-27 08:26:00,
2013-01-27 02:31:00,26.6,16.8,30.00,South,179,1.0,2.0,66,0.00,,,0.00,Wunderground v.1.15,2013-01-27 08:31:00,
2013-01-27 02:37:00,26.7,16.9,29.99,South,172,1.0,2.0,66,0.00,,,0.00,Wunderground v.1.15,2013-01-27 08:37:00,
2013-01-27 02:42:00,26.6,16.8,29.99,SSW,197,0.0,1.0,66,0.00,,,0.00,Wunderground v.1.15,2013-01-27 08:42:00,
2013-01-27 02:47:00,26.5,16.7,29.99,ESE,123,0.0,1.0,66,0.00,,,0.00,Wunderground v.1.15,2013-01-27 08:47:00,
2013-01-27 02:52:00,26.5,16.7,29.99,WSW,246,1.0,1.0,66,0.00,,,0.00,Wunderground v.1.15,2013-01-27 08:52:00,
2013-01-27 02:57:00,26.5,16.7,29.99,West,281,1.0,1.0,66,0.00,,,0.00,Wunderground v.1.15,2013-01-27 08:57:00,
2013-01-27 03:03:00,26.3,16.8,29.98,South,190,1.0,1.0,67,0.00,,,0.00,Wunderground v.1.15,2013-01-27 09:03:00,
2013-01-27 03:08:00,26.3,16.8,29.98,East,90,1.0,2.0,67,0.00,,,0.00,Wunderground v.1.15,2013-01-27 09:08:00,
2013-01-27 03:13:00,26.4,16.6,29.98,SW,214,1.0,2.0,66,0.00,,,0.00,Wunderground v.1.15,2013-01-27 09:13:00,
2013-01-27 03:18:00,26.5,16.7,29.98,WSW,252,1.0,2.0,66,0.00,,,0.00,Wunderground v.1.15,2013-01-27 09:18:00,
2013-01-27 03:23:00,26.4,16.9,29.97,ENE,78,1.0,1.0,67,0.00,,,0.00,Wunderground v.1.15,2013-01-27 09:23:00,
2013-01-27 03:28:00,26.3,16.8,29.97,East,93,1.0,1.0,67,0.00,,,0.00,Wunderground v.1.15,2013-01-27 09:28:00,
2013-01-27 03:34:00,26.3,16.8,29.97,East,99,0.0,2.0,67,0.00,,,0.00,Wunderground v.1.15,2013-01-27 09:34:00,
2013-01-27 03:39:00,26.5,17.0,29.96,SE,134,0.0,2.0,67,0.00,,,0.00,Wunderground v.1.15,2013-01-27 09:39:00,
2013-01-27 03:44:00,26.7,17.2,29.96,NNW,347,1.0,1.0,67,0.00,,,0.00,Wunderground v.1.15,2013-01-27 09:44:00,
2013-01-27 03:49:00,26.8,17.3,29.95,SE,132,0.0,1.0,67,0.00,,,0.00,Wunderground v.1.15,2013-01-27 09:49:00,
2013-01-27 03:54:00,27.1,17.6,29.95,ESE,121,1.0,2.0,67,0.00,,,0.00,Wunderground v.1.15,2013-01-27 09:54:00,
2013-01-27 04:00:00,27.3,17.8,29.95,SE,141,1.0,1.0,67,0.00,,,0.00,Wunderground v.1.15,2013-01-27 10:00:00,
2013-01-27 04:05:00,27.5,17.6,29.94,NNE,16,1.0,1.0,66,0.00,,,0.00,Wunderground v.1.15,2013-01-27 10:05:00,
2013-01-27 04:10:00,27.8,17.9,29.94,SW,226,1.0,1.0,66,0.00,,,0.00,Wunderground v.1.15,2013-01-27 10:10:00,
2013-01-27 04:15:00,27.9,18.0,29.94,SW,228,1.0,1.0,66,0.00,,,0.00,Wunderground v.1.15,2013-01-27 10:15:00,
2013-01-27 04:20:00,28.0,18.1,29.94,WSW,248,0.0,3.0,66,0.00,,,0.00,Wunderground v.1.15,2013-01-27 10:20:00,
2013-01-27 04:26:00,28.2,18.3,29.94,North,10,1.0,3.0,66,0.00,,,0.00,Wunderground v.1.15,2013-01-27 10:26:00,
2013-01-27 04:31:00,28.3,18.4,29.94,SE,135,1.0,1.0,66,0.00,,,0.00,Wunderground v.1.15,2013-01-27 10:31:00,
2013-01-27 04:36:00,28.5,18.6,29.93,North,3,1.0,2.0,66,0.00,,,0.00,Wunderground v.1.15,2013-01-27 10:36:00,
2013-01-27 04:41:00,28.6,18.7,29.94,SW,214,1.0,1.0,66,0.00,,,0.00,Wunderground v.1.15,2013-01-27 10:41:00,
2013-01-27 04:46:00,28.6,18.7,29.93,SSW,194,0.0,1.0,66,0.00,,,0.00,Wunderground v.1.15,2013-01-27 10:46:00,
2013-01-27 04:51:00,28.8,18.9,29.93,SE,145,0.0,1.0,66,0.00,,,0.00,Wunderground v.1.15,2013-01-27 10:51:00,
2013-01-27 04:56:00,29.0,18.7,29.93,SSE,149,1.0,2.0,65,0.00,,,0.00,Wunderground v.1.15,2013-01-27 10:56:00,
2013-01-27 05:01:00,29.2,18.9,29.93,WSW,250,1.0,2.0,65,0.00,,,0.00,Wunderground v.1.15,2013-01-27 11:01:00,
2013-01-27 05:06:00,29.4,19.1,29.93,NNW,340,1.0,2.0,65,0.00,,,0.00,Wunderground v.1.15,2013-01-27 11:06:00,
2013-01-27 05:11:00,29.4,19.1,29.92,ENE,68,1.0,2.0,65,0.00,,,0.00,Wunderground v.1.15,2013-01-27 11:11:00,
2013-01-27 05:17:00,29.5,18.8,29.92,West,259,1.0,2.0,64,0.00,,,0.00,Wunderground v.1.15,2013-01-27 11:17:00,
2013-01-27 05:22:00,29.4,18.7,29.93,ESE,119,0.0,1.0,64,0.00,,,0.00,Wunderground v.1.15,2013-01-27 11:22:00,
2013-01-27 05:27:00,29.3,18.6,29.93,East,100,0.0,1.0,64,0.00,,,0.00,Wunderground v.1.15,2013-01-27 11:27:00,
2013-01-27 05:32:00,29.3,19.0,29.93,WSW,240,0.0,1.0,65,0.00,,,0.00,Wunderground v.1.15,2013-01-27 11:32:00,
2013-01-27 05:37:00,29.0,18.7,29.93,ENE,72,1.0,1.0,65,0.00,,,0.00,Wunderground v.1.15,2013-01-27 11:37:00,
2013-01-27 05:43:00,28.8,18.9,29.92,WNW,295,1.0,1.0,66,0.00,,,0.00,Wunderground v.1.15,2013-01-27 11:43:00,
2013-01-27 05:48:00,29.0,18.7,29.92,ENE,57,1.0,2.0,65,0.00,,,0.00,Wunderground v.1.15,2013-01-27 11:48:00,
2013-01-27 05:53:00,29.3,19.0,29.92,WSW,250,1.0,1.0,65,0.00,,,0.00,Wunderground v.1.15,2013-01-27 11:53:00,
2013-01-27 05:58:00,29.5,19.2,29.92,West,271,1.0,1.0,65,0.00,,,0.00,Wunderground v.1.15,2013-01-27 11:58:00,
2013-01-27 06:03:00,29.6,19.3,29.92,SSW,198,1.0,1.0,65,0.00,,,0.00,Wunderground v.1.15,2013-01-27 12:03:00,
2013-01-27 06:09:00,29.8,19.1,29.92,SE,136,1.0,2.0,64,0.00,,,0.00,Wunderground v.1.15,2013-01-27 12:09:00,
2013-01-27 06:14:00,30.0,19.3,29.92,NNE,21,1.0,2.0,64,0.00,,,0.00,Wunderground v.1.15,2013-01-27 12:14:00,
2013-01-27 06:19:00,30.0,19.3,29.92,East,89,0.0,1.0,64,0.00,,,0.00,Wunderground v.1.15,2013-01-27 12:19:00,
2013-01-27 06:24:00,30.0,19.3,29.92,SSE,151,0.0,1.0,64,0.00,,,0.00,Wunderground v.1.15,2013-01-27 12:24:00,
2013-01-27 06:29:00,29.9,19.6,29.92,South,176,1.0,2.0,65,0.00,,,0.00,Wunderground v.1.15,2013-01-27 12:29:00,
2013-01-27 06:35:00,30.1,19.4,29.92,NW,307,1.0,4.0,64,0.00,,,0.00,Wunderground v.1.15,2013-01-27 12:35:00,
2013-01-27 06:40:00,30.2,19.5,29.92,South,169,1.0,1.0,64,0.00,,,0.00,Wunderground v.1.15,2013-01-27 12:40:00,
2013-01-27 06:45:00,30.2,19.5,29.92,WSW,245,1.0,2.0,64,0.00,,,0.00,Wunderground v.1.15,2013-01-27 12:45:00,
2013-01-27 06:50:00,30.2,19.5,29.92,WNW,285,1.0,1.0,64,0.00,,,0.00,Wunderground v.1.15,2013-01-27 12:50:00,
2013-01-27 06:55:00,30.3,19.6,29.91,SSW,203,1.0,2.0,64,0.00,,,0.00,Wunderground v.1.15,2013-01-27 12:55:00,
2013-01-27 07:00:00,30.2,19.5,29.92,SW,228,1.0,1.0,64,0.00,,,0.00,Wunderground v.1.15,2013-01-27 13:00:00,
2013-01-27 07:06:00,30.3,19.6,29.91,West,266,0.0,1.0,64,0.00,,,0.00,Wunderground v.1.15,2013-01-27 13:06:00,
2013-01-27 07:11:00,30.3,19.6,29.92,West,262,1.0,1.0,64,0.00,,,0.00,Wunderground v.1.15,2013-01-27 13:11:00,
2013-01-27 07:16:00,30.5,19.4,29.92,SSE,167,1.0,2.0,63,0.00,,,0.00,Wunderground v.1.15,2013-01-27 13:16:00,
2013-01-27 07:21:00,30.5,19.4,29.92,West,273,1.0,2.0,63,0.00,,,0.00,Wunderground v.1.15,2013-01-27 13:21:00,
2013-01-27 07:26:00,30.5,19.8,29.91,SSE,158,1.0,3.0,64,0.00,,,0.00,Wunderground v.1.15,2013-01-27 13:26:00,
2013-01-27 07:32:00,30.4,20.0,29.91,SSW,210,1.0,1.0,65,0.00,,,0.00,Wunderground v.1.15,2013-01-27 13:32:00,
2013-01-27 07:37:00,30.4,19.7,29.91,SE,132,1.0,2.0,64,0.00,,,0.00,Wunderground v.1.15,2013-01-27 13:37:00,
2013-01-27 07:42:00,30.5,19.8,29.91,SW,215,1.0,3.0,64,0.00,,,0.00,Wunderground v.1.15,2013-01-27 13:42:00,
2013-01-27 07:47:00,30.6,19.9,29.90,East,91,1.0,3.0,64,0.00,,,0.00,Wunderground v.1.15,2013-01-27 13:47:00,
2013-01-27 07:52:00,30.5,19.8,29.90,WSW,238,1.0,2.0,64,0.00,,,0.00,Wunderground v.1.15,2013-01-27 13:52:00,
2013-01-27 07:58:00,30.5,20.1,29.90,SE,142,1.0,2.0,65,0.00,,,0.00,Wunderground v.1.15,2013-01-27 13:58:00,
2013-01-27 08:03:00,30.5,19.8,29.90,WSW,243,1.0,2.0,64,0.00,,,0.00,Wunderground v.1.15,2013-01-27 14:03:00,
2013-01-27 08:08:00,30.6,19.9,29.90,WSW,252,1.0,7.0,64,0.00,,,0.00,Wunderground v.1.15,2013-01-27 14:08:00,
2013-01-27 08:13:00,30.8,20.0,29.90,South,187,1.0,3.0,64,0.00,,,0.00,Wunderground v.1.15,2013-01-27 14:13:00,
2013-01-27 08:18:00,30.9,20.1,29.90,ENE,70,1.0,3.0,64,0.00,,,0.00,Wunderground v.1.15,2013-01-27 14:18:00,
2013-01-27 08:24:00,30.9,20.1,29.89,SE,129,1.0,1.0,64,0.00,,,0.00,Wunderground v.1.15,2013-01-27 14:24:00,
2013-01-27 08:29:00,31.0,20.2,29.89,West,269,1.0,2.0,64,0.00,,,0.00,Wunderground v.1.15,2013-01-27 14:29:00,
2013-01-27 08:34:00,31.0,20.2,29.89,SSE,155,1.0,4.0,64,0.00,,,0.00,Wunderground v.1.15,2013-01-27 14:34:00,
2013-01-27 08:39:00,31.1,20.3,29.89,SE,143,1.0,4.0,64,0.00,,,0.00,Wunderground v.1.15,2013-01-27 14:39:00,
2013-01-27 08:44:00,31.1,20.7,29.89,ESE,113,1.0,1.0,65,0.00,,,0.00,Wunderground v.1.15,2013-01-27 14:44:00,
2013-01-27 08:50:00,31.1,20.7,29.89,SW,229,0.0,1.0,65,0.00,,,0.00,Wunderground v.1.15,2013-01-27 14:50:00,
2013-01-27 08:55:00,31.2,20.4,29.89,ESE,105,0.0,2.0,64,0.00,,,0.00,Wunderground v.1.15,2013-01-27 14:55:00,
2013-01-27 09:00:00,31.2,21.2,29.88,NE,51,0.0,1.0,66,0.00,,,0.00,Wunderground v.1.15,2013-01-27 15:00:00,
2013-01-27 09:05:00,31.2,20.8,29.88,NNE,19,0.0,1.0,65,0.00,,,0.00,Wunderground v.1.15,2013-01-27 15:05:00,
2013-01-27 09:10:00,31.3,21.6,29.88,East,87,0.0,2.0,67,0.00,,,0.00,Wunderground v.1.15,2013-01-27 15:10:00,
2013-01-27 09:16:00,31.4,21.3,29.88,SW,217,0.0,2.0,66,0.00,,,0.00,Wunderground v.1.15,2013-01-27 15:16:00,
2013-01-27 09:21:00,31.6,21.2,29.88,NW,317,1.0,1.0,65,0.00,,,0.00,Wunderground v.1.15,2013-01-27 15:21:00,
2013-01-27 09:26:00,31.7,20.9,29.88,SW,228,1.0,2.0,64,0.00,,,0.00,Wunderground v.1.15,2013-01-27 15:26:00,
2013-01-27 09:31:00,31.8,21.4,29.87,WNW,293,1.0,1.0,65,0.00,,,0.00,Wunderground v.1.15,2013-01-27 15:31:00,
2013-01-27 09:36:00,31.9,21.1,29.87,North,355,1.0,2.0,64,0.00,,,0.00,Wunderground v.1.15,2013-01-27 15:36:00,
2013-01-27 09:42:00,32.0,21.6,29.87,NNW,348,1.0,3.0,65,0.00,,,0.00,Wunderground v.1.15,2013-01-27 15:42:00,
2013-01-27 09:47:00,32.0,21.9,29.87,SW,218,1.0,3.0,66,0.00,,,0.00,Wunderground v.1.15,2013-01-27 15:47:00,
2013-01-27 09:52:00,32.0,21.6,29.87,NNE,18,1.0,1.0,65,0.00,,,0.00,Wunderground v.1.15,2013-01-27 15:52:00,
2013-01-27 09:57:00,31.9,21.5,29.87,NW,318,0.0,1.0,65,0.00,,,0.00,Wunderground v.1.15,2013-01-27 15:57:00,
2013-01-27 10:02:00,31.9,21.8,29.87,East,84,0.0,1.0,66,0.00,,,0.00,Wunderground v.1.15,2013-01-27 16:02:00,
2013-01-27 10:08:00,31.9,21.8,29.86,ESE,117,0.0,2.0,66,0.00,,,0.00,Wunderground v.1.15,2013-01-27 16:08:00,
2013-01-27 10:13:00,31.8,22.1,29.86,North,5,0.0,1.0,67,0.00,,,0.00,Wunderground v.1.15,2013-01-27 16:13:00,
2013-01-27 10:18:00,31.8,22.1,29.86,West,263,0.0,2.0,67,0.00,,,0.00,Wunderground v.1.15,2013-01-27 16:18:00,
2013-01-27 10:23:00,31.8,22.1,29.86,SSE,166,1.0,2.0,67,0.00,,,0.00,Wunderground v.1.15,2013-01-27 16:23:00,
2013-01-27 10:28:00,31.8,22.8,29.87,SE,135,1.0,2.0,69,0.00,,,0.00,Wunderground v.1.15,2013-01-27 16:28:00,
2013-01-27 10:34:00,31.9,22.9,29.87,NW,324,1.0,1.0,69,0.00,,,0.00,Wunderground v.1.15,2013-01-27 16:34:00,
2013-01-27 10:39:00,31.9,23.2,29.87,NNW,342,0.0,1.0,70,0.00,,,0.00,Wunderground v.1.15,2013-01-27 16:39:00,
2013-01-27 10:44:00,31.9,23.6,29.87,West,280,1.0,2.0,71,0.00,,,0.00,Wunderground v.1.15,2013-01-27 16:44:00,
2013-01-27 10:49:00,31.9,23.9,29.87,WSW,242,1.0,2.0,72,0.00,,,0.00,Wunderground v.1.15,2013-01-27 16:49:00,
2013-01-27 10:54:00,31.9,24.6,29.87,NNW,339,1.0,2.0,74,0.00,,,0.00,Wunderground v.1.15,2013-01-27 16:54:00,
2013-01-27 10:59:00,31.8,25.1,29.87,West,271,1.0,1.0,76,0.00,,,0.00,Wunderground v.1.15,2013-01-27 16:59:00,
2013-01-27 11:04:00,31.7,25.6,29.87,ESE,110,1.0,2.0,78,0.00,,,0.00,Wunderground v.1.15,2013-01-27 17:04:00,
2013-01-27 11:09:00,31.7,26.2,29.87,West,269,1.0,1.0,80,0.00,,,0.00,Wunderground v.1.15,2013-01-27 17:09:00,
2013-01-27 11:14:00,31.6,26.7,29.87,ESE,114,1.0,1.0,82,0.00,,,0.00,Wunderground v.1.15,2013-01-27 17:14:00,
2013-01-27 11:19:00,31.6,27.3,29.87,SSE,159,0.0,2.0,84,0.00,,,0.00,Wunderground v.1.15,2013-01-27 17:19:00,
2013-01-27 11:25:00,31.6,28.2,29.86,ESE,117,1.0,2.0,87,0.00,,,0.00,Wunderground v.1.15,2013-01-27 17:25:00,
2013-01-27 11:30:00,31.7,28.6,29.86,WSW,248,1.0,1.0,88,0.00,,,0.01,Wunderground v.1.15,2013-01-27 17:30:00,
2013-01-27 11:35:00,31.7,28.8,29.86,WNW,302,1.0,2.0,89,0.07,,,0.02,Wunderground v.1.15,2013-01-27 17:35:00,
2013-01-27 11:40:00,31.8,28.9,29.85,SSE,165,1.0,1.0,89,0.11,,,0.03,Wunderground v.1.15,2013-01-27 17:40:00,
2013-01-27 11:45:00,31.8,29.2,29.84,ENE,68,1.0,3.0,90,0.10,,,0.03,Wunderground v.1.15,2013-01-27 17:45:00,
2013-01-27 11:51:00,31.8,29.2,29.84,East,96,1.0,3.0,90,0.09,,,0.04,Wunderground v.1.15,2013-01-27 17:51:00,
2013-01-27 11:56:00,31.7,29.1,29.84,East,87,1.0,3.0,90,0.06,,,0.05,Wunderground v.1.15,2013-01-27 17:56:00,
2013-01-27 12:01:00,31.7,29.4,29.83,WNW,284,1.0,2.0,91,0.06,,,0.05,Wunderground v.1.15,2013-01-27 18:01:00,
2013-01-27 12:06:00,31.7,29.4,29.83,ENE,71,1.0,2.0,91,0.09,,,0.06,Wunderground v.1.15,2013-01-27 18:06:00,
2013-01-27 12:11:00,31.8,29.5,29.82,West,278,1.0,1.0,91,0.11,,,0.07,Wunderground v.1.15,2013-01-27 18:11:00,
2013-01-27 12:17:00,31.8,29.5,29.82,SSE,159,1.0,1.0,91,0.08,,,0.08,Wunderground v.1.15,2013-01-27 18:17:00,
2013-01-27 12:22:00,31.8,29.7,29.82,NNW,335,1.0,1.0,92,0.12,,,0.09,Wunderground v.1.15,2013-01-27 18:22:00,
2013-01-27 12:27:00,31.8,29.7,29.82,West,271,1.0,2.0,92,0.11,,,0.10,Wunderground v.1.15,2013-01-27 18:27:00,
2013-01-27 12:32:00,31.8,29.7,29.82,NNW,337,1.0,3.0,92,0.10,,,0.10,Wunderground v.1.15,2013-01-27 18:32:00,
2013-01-27 12:37:00,31.7,29.6,29.81,SSW,212,1.0,3.0,92,0.05,,,0.10,Wunderground v.1.15,2013-01-27 18:37:00,
2013-01-27 12:43:00,31.7,29.6,29.81,North,8,1.0,1.0,92,0.00,,,0.10,Wunderground v.1.15,2013-01-27 18:43:00,
2013-01-27 12:48:00,31.7,29.6,29.80,ENE,57,1.0,2.0,92,0.00,,,0.10,Wunderground v.1.15,2013-01-27 18:48:00,
2013-01-27 12:53:00,31.8,29.7,29.80,North,5,1.0,3.0,92,0.00,,,0.10,Wunderground v.1.15,2013-01-27 18:53:00,
2013-01-27 12:58:00,31.8,29.7,29.79,NNE,19,1.0,3.0,92,0.00,,,0.10,Wunderground v.1.15,2013-01-27 18:58:00,
2013-01-27 13:03:00,31.8,29.7,29.79,East,82,1.0,2.0,92,0.00,,,0.10,Wunderground v.1.15,2013-01-27 19:03:00,
2013-01-27 13:08:00,31.8,29.7,29.79,ENE,70,1.0,2.0,92,0.00,,,0.10,Wunderground v.1.15,2013-01-27 19:08:00,
2013-01-27 13:14:00,31.8,29.7,29.79,NW,314,1.0,1.0,92,0.00,,,0.10,Wunderground v.1.15,2013-01-27 19:14:00,
2013-01-27 13:19:00,31.8,29.7,29.79,ENE,72,0.0,1.0,92,0.00,,,0.10,Wunderground v.1.15,2013-01-27 19:19:00,
2013-01-27 13:24:00,31.8,30.0,29.78,NE,43,1.0,2.0,93,0.00,,,0.10,Wunderground v.1.15,2013-01-27 19:24:00,
2013-01-27 13:29:00,31.8,30.0,29.78,ENE,58,1.0,2.0,93,0.00,,,0.10,Wunderground v.1.15,2013-01-27 19:29:00,
2013-01-27 13:34:00,31.7,29.9,29.77,SE,128,1.0,1.0,93,0.00,,,0.10,Wunderground v.1.15,2013-01-27 19:34:00,
2013-01-27 13:40:00,31.7,29.9,29.77,SE,136,0.0,1.0,93,0.00,,,0.10,Wunderground v.1.15,2013-01-27 19:40:00,
2013-01-27 13:45:00,31.8,30.0,29.77,West,278,0.0,1.0,93,0.00,,,0.10,Wunderground v.1.15,2013-01-27 19:45:00,
2013-01-27 13:50:00,31.8,30.0,29.76,NNW,348,0.0,1.0,93,0.00,,,0.10,Wunderground v.1.15,2013-01-27 19:50:00,
2013-01-27 13:55:00,31.8,30.0,29.76,NNE,32,1.0,2.0,93,0.00,,,0.10,Wunderground v.1.15,2013-01-27 19:55:00,
2013-01-27 14:00:00,31.7,29.9,29.76,NNW,332,0.0,1.0,93,0.00,,,0.10,Wunderground v.1.15,2013-01-27 20:00:00,
2013-01-27 14:06:00,31.7,29.9,29.76,NNW,348,0.0,1.0,93,0.00,,,0.10,Wunderground v.1.15,2013-01-27 20:06:00,
2013-01-27 14:11:00,31.8,30.0,29.76,NNE,19,0.0,1.0,93,0.00,,,0.10,Wunderground v.1.15,2013-01-27 20:11:00,
2013-01-27 14:16:00,31.8,30.0,29.76,ENE,63,0.0,1.0,93,0.00,,,0.10,Wunderground v.1.15,2013-01-27 20:16:00,
2013-01-27 14:21:00,31.8,30.0,29.76,SSW,194,0.0,1.0,93,0.00,,,0.10,Wunderground v.1.15,2013-01-27 20:21:00,
2013-01-27 14:26:00,31.7,29.9,29.75,NE,43,0.0,1.0,93,0.00,,,0.10,Wunderground v.1.15,2013-01-27 20:26:00,
2013-01-27 14:31:00,31.7,29.9,29.75,NNE,21,0.0,1.0,93,0.00,,,0.10,Wunderground v.1.15,2013-01-27 20:31:00,
2013-01-27 14:36:00,31.7,29.9,29.75,NNW,347,0.0,1.0,93,0.00,,,0.10,Wunderground v.1.15,2013-01-27 20:36:00,
2013-01-27 14:41:00,31.7,29.9,29.75,NE,51,0.0,1.0,93,0.00,,,0.10,Wunderground v.1.15,2013-01-27 20:41:00,
2013-01-27 14:46:00,31.8,30.0,29.75,East,96,0.0,1.0,93,0.00,,,0.10,Wunderground v.1.15,2013-01-27 20:46:00,
2013-01-27 14:51:00,31.8,30.0,29.75,ESE,103,0.0,1.0,93,0.00,,,0.10,Wunderground v.1.15,2013-01-27 20:51:00,
2013-01-27 14:57:00,32.0,30.2,29.74,East,96,0.0,1.0,93,0.00,,,0.10,Wunderground v.1.15,2013-01-27 20:57:00,
2013-01-27 15:02:00,32.0,30.2,29.74,NE,46,0.0,1.0,93,0.00,,,0.10,Wunderground v.1.15,2013-01-27 21:02:00,
2013-01-27 15:07:00,32.0,30.2,29.74,NNE,16,0.0,1.0,93,0.00,,,0.10,Wunderground v.1.15,2013-01-27 21:07:00,
2013-01-27 15:12:00,32.0,30.2,29.74,SSW,195,0.0,1.0,93,0.00,,,0.10,Wunderground v.1.15,2013-01-27 21:12:00,
2013-01-27 15:17:00,32.0,30.2,29.73,SSW,195,0.0,1.0,93,0.00,,,0.10,Wunderground v.1.15,2013-01-27 21:17:00,
2013-01-27 15:23:00,32.0,30.2,29.73,SSW,195,0.0,1.0,93,0.00,,,0.10,Wunderground v.1.15,2013-01-27 21:23:00,
2013-01-27 15:28:00,32.1,30.3,29.73,SSW,195,0.0,1.0,93,0.00,,,0.10,Wunderground v.1.15,2013-01-27 21:28:00,
2013-01-27 15:33:00,32.1,30.3,29.73,SSW,195,0.0,1.0,93,0.00,,,0.10,Wunderground v.1.15,2013-01-27 21:33:00,
2013-01-27 15:38:00,32.1,30.3,29.73,SSW,195,0.0,1.0,93,0.00,,,0.10,Wunderground v.1.15,2013-01-27 21:38:00,
2013-01-27 15:43:00,32.1,30.3,29.74,SSW,195,0.0,1.0,93,0.00,,,0.10,Wunderground v.1.15,2013-01-27 21:43:00,
2013-01-27 15:49:00,32.1,30.3,29.74,SSW,195,0.0,1.0,93,0.00,,,0.10,Wunderground v.1.15,2013-01-27 21:49:00,
2013-01-27 15:54:00,32.2,30.4,29.74,SSW,195,0.0,1.0,93,0.00,,,0.10,Wunderground v.1.15,2013-01-27 21:54:00,
2013-01-27 15:59:00,32.2,30.4,29.74,SSW,195,0.0,1.0,93,0.00,,,0.10,Wunderground v.1.15,2013-01-27 21:59:00,
2013-01-27 16:04:00,32.2,30.4,29.74,SSW,195,0.0,1.0,93,0.00,,,0.10,Wunderground v.1.15,2013-01-27 22:04:00,
2013-01-27 16:09:00,32.2,30.4,29.73,SSW,195,0.0,1.0,93,0.00,,,0.10,Wunderground v.1.15,2013-01-27 22:09:00,
2013-01-27 16:15:00,32.1,30.3,29.73,SSW,195,0.0,1.0,93,0.00,,,0.10,Wunderground v.1.15,2013-01-27 22:15:00,
2013-01-27 16:20:00,32.1,30.3,29.73,SSW,195,0.0,1.0,93,0.00,,,0.10,Wunderground v.1.15,2013-01-27 22:20:00,
2013-01-27 16:25:00,32.1,30.3,29.73,SSW,195,0.0,1.0,93,0.00,,,0.10,Wunderground v.1.15,2013-01-27 22:25:00,
2013-01-27 16:30:00,32.1,30.3,29.73,SSW,195,0.0,1.0,93,0.00,,,0.10,Wunderground v.1.15,2013-01-27 22:30:00,
2013-01-27 16:35:00,32.0,30.2,29.73,SSW,195,0.0,1.0,93,0.00,,,0.10,Wunderground v.1.15,2013-01-27 22:35:00,
2013-01-27 16:40:00,32.1,30.3,29.73,SSW,196,0.0,1.0,93,0.00,,,0.10,Wunderground v.1.15,2013-01-27 22:40:00,
2013-01-27 16:46:00,32.1,30.3,29.73,SSW,195,0.0,1.0,93,0.00,,,0.10,Wunderground v.1.15,2013-01-27 22:46:00,
2013-01-27 16:51:00,32.1,30.3,29.73,SSW,195,0.0,1.0,93,0.00,,,0.10,Wunderground v.1.15,2013-01-27 22:51:00,
2013-01-27 16:56:00,32.2,30.4,29.73,SSW,195,0.0,1.0,93,0.00,,,0.10,Wunderground v.1.15,2013-01-27 22:56:00,
2013-01-27 17:01:00,32.2,30.4,29.72,SSW,196,0.0,1.0,93,0.00,,,0.10,Wunderground v.1.15,2013-01-27 23:01:00,
2013-01-27 17:06:00,32.2,30.4,29.72,SSW,195,0.0,1.0,93,0.00,,,0.10,Wunderground v.1.15,2013-01-27 23:06:00,
2013-01-27 17:12:00,32.1,30.3,29.72,SSW,195,0.0,1.0,93,0.00,,,0.10,Wunderground v.1.15,2013-01-27 23:12:00,
2013-01-27 17:17:00,32.1,30.3,29.72,SSW,195,0.0,1.0,93,0.00,,,0.10,Wunderground v.1.15,2013-01-27 23:17:00,
2013-01-27 17:22:00,32.1,30.3,29.72,SSW,195,0.0,1.0,93,0.00,,,0.10,Wunderground v.1.15,2013-01-27 23:22:00,
2013-01-27 17:27:00,32.0,30.2,29.72,SSW,195,0.0,1.0,93,0.00,,,0.10,Wunderground v.1.15,2013-01-27 23:27:00,
2013-01-27 17:32:00,32.0,30.2,29.72,SSW,195,0.0,1.0,93,0.00,,,0.10,Wunderground v.1.15,2013-01-27 23:32:00,
2013-01-27 17:38:00,32.0,30.2,29.72,SSW,196,0.0,1.0,93,0.00,,,0.10,Wunderground v.1.15,2013-01-27 23:38:00,
2013-01-27 17:43:00,32.1,30.3,29.72,SSW,195,0.0,1.0,93,0.00,,,0.10,Wunderground v.1.15,2013-01-27 23:43:00,
2013-01-27 17:48:00,32.1,30.3,29.71,SSW,195,0.0,1.0,93,0.00,,,0.10,Wunderground v.1.15,2013-01-27 23:48:00,
2013-01-27 17:53:00,32.0,30.2,29.71,SSW,195,0.0,1.0,93,0.00,,,0.10,Wunderground v.1.15,2013-01-27 23:53:00,
2013-01-27 17:58:00,32.0,30.2,29.72,SSW,195,0.0,1.0,93,0.00,,,0.10,Wunderground v.1.15,2013-01-27 23:58:00,
2013-01-27 18:04:00,32.0,30.2,29.72,SSW,195,0.0,1.0,93,0.00,,,0.10,Wunderground v.1.15,2013-01-28 00:04:00,
2013-01-27 18:09:00,32.0,30.2,29.72,SSW,195,0.0,1.0,93,0.00,,,0.10,Wunderground v.1.15,2013-01-28 00:09:00,
2013-01-27 18:14:00,32.0,30.2,29.72,SSW,195,0.0,1.0,93,0.00,,,0.10,Wunderground v.1.15,2013-01-28 00:14:00,
2013-01-27 18:19:00,32.0,30.2,29.72,SSW,195,0.0,1.0,93,0.00,,,0.10,Wunderground v.1.15,2013-01-28 00:19:00,
2013-01-27 18:24:00,32.0,30.2,29.72,SSW,195,0.0,1.0,93,0.00,,,0.10,Wunderground v.1.15,2013-01-28 00:24:00,
2013-01-27 18:30:00,32.0,30.2,29.72,SSW,195,0.0,1.0,93,0.00,,,0.10,Wunderground v.1.15,2013-01-28 00:30:00,
2013-01-27 18:35:00,32.0,30.2,29.72,SSW,195,0.0,1.0,93,0.00,,,0.10,Wunderground v.1.15,2013-01-28 00:35:00,
2013-01-27 18:40:00,32.0,30.2,29.71,SSW,197,0.0,1.0,93,0.00,,,0.10,Wunderground v.1.15,2013-01-28 00:40:00,
2013-01-27 18:45:00,32.0,30.2,29.71,SSW,195,0.0,1.0,93,0.00,,,0.10,Wunderground v.1.15,2013-01-28 00:45:00,
2013-01-27 18:50:00,32.0,30.2,29.72,SSW,195,0.0,1.0,93,0.00,,,0.10,Wunderground v.1.15,2013-01-28 00:50:00,
2013-01-27 18:56:00,31.9,30.1,29.72,SSW,195,0.0,1.0,93,0.00,,,0.10,Wunderground v.1.15,2013-01-28 00:56:00,
2013-01-27 19:01:00,31.9,30.1,29.72,SSW,195,0.0,1.0,93,0.00,,,0.10,Wunderground v.1.15,2013-01-28 01:01:00,
2013-01-27 19:06:00,32.0,30.2,29.72,SSW,195,0.0,1.0,93,0.00,,,0.10,Wunderground v.1.15,2013-01-28 01:06:00,
2013-01-27 19:11:00,32.0,30.2,29.72,SSW,195,0.0,1.0,93,0.00,,,0.10,Wunderground v.1.15,2013-01-28 01:11:00,
2013-01-27 19:16:00,32.0,30.2,29.72,SSW,195,0.0,1.0,93,0.00,,,0.10,Wunderground v.1.15,2013-01-28 01:16:00,
2013-01-27 19:22:00,32.0,30.2,29.72,SSW,195,0.0,1.0,93,0.00,,,0.10,Wunderground v.1.15,2013-01-28 01:22:00,
2013-01-27 19:27:00,32.0,30.2,29.72,SSW,195,0.0,1.0,93,0.00,,,0.10,Wunderground v.1.15,2013-01-28 01:27:00,
2013-01-27 19:32:00,32.0,30.2,29.72,SSW,195,0.0,1.0,93,0.00,,,0.10,Wunderground v.1.15,2013-01-28 01:32:00,
2013-01-27 19:37:00,31.9,30.1,29.72,SSW,195,0.0,1.0,93,0.00,,,0.10,Wunderground v.1.15,2013-01-28 01:37:00,
2013-01-27 19:42:00,32.0,30.2,29.71,SSW,195,0.0,1.0,93,0.00,,,0.10,Wunderground v.1.15,2013-01-28 01:42:00,
2013-01-27 19:48:00,32.0,30.2,29.71,SSW,195,0.0,1.0,93,0.00,,,0.10,Wunderground v.1.15,2013-01-28 01:48:00,
2013-01-27 19:53:00,32.0,30.2,29.71,SSW,195,0.0,1.0,93,0.00,,,0.10,Wunderground v.1.15,2013-01-28 01:53:00,
2013-01-27 19:58:00,32.0,30.2,29.71,SSW,195,0.0,1.0,93,0.00,,,0.10,Wunderground v.1.15,2013-01-28 01:58:00,
2013-01-27 20:03:00,32.0,30.2,29.71,SSW,195,0.0,1.0,93,0.00,,,0.10,Wunderground v.1.15,2013-01-28 02:03:00,
2013-01-27 20:08:00,32.0,30.2,29.70,SSW,196,0.0,1.0,93,0.00,,,0.10,Wunderground v.1.15,2013-01-28 02:08:00,
2013-01-27 20:14:00,32.0,30.2,29.70,SSW,195,0.0,1.0,93,0.00,,,0.10,Wunderground v.1.15,2013-01-28 02:14:00,
2013-01-27 20:19:00,32.0,30.2,29.70,SSW,195,0.0,1.0,93,0.00,,,0.10,Wunderground v.1.15,2013-01-28 02:19:00,
2013-01-27 20:25:00,31.9,30.1,29.70,SSW,196,0.0,1.0,93,0.00,,,0.10,Wunderground v.1.15,2013-01-28 02:25:00,
2013-01-27 20:30:00,31.9,30.1,29.70,SSW,195,0.0,1.0,93,0.00,,,0.10,Wunderground v.1.15,2013-01-28 02:30:00,
2013-01-27 20:35:00,31.8,30.0,29.70,SSW,195,0.0,1.0,93,0.00,,,0.10,Wunderground v.1.15,2013-01-28 02:35:00,
2013-01-27 20:40:00,31.8,30.0,29.70,SSW,195,0.0,1.0,93,0.00,,,0.10,Wunderground v.1.15,2013-01-28 02:40:00,
2013-01-27 20:45:00,31.8,30.0,29.70,SSW,195,0.0,1.0,93,0.00,,,0.10,Wunderground v.1.15,2013-01-28 02:45:00,
2013-01-27 20:50:00,31.7,29.9,29.69,SSW,195,0.0,1.0,93,0.00,,,0.10,Wunderground v.1.15,2013-01-28 02:50:00,
2013-01-27 20:55:00,31.7,29.9,29.70,SSW,195,0.0,1.0,93,0.00,,,0.10,Wunderground v.1.15,2013-01-28 02:55:00,
2013-01-27 21:00:00,31.7,29.9,29.70,SSW,195,0.0,1.0,93,0.00,,,0.10,Wunderground v.1.15,2013-01-28 03:00:00,
2013-01-27 21:05:00,31.6,29.8,29.70,SSW,195,0.0,1.0,93,0.00,,,0.10,Wunderground v.1.15,2013-01-28 03:05:00,
2013-01-27 21:11:00,31.6,29.8,29.70,SSW,195,0.0,1.0,93,0.00,,,0.10,Wunderground v.1.15,2013-01-28 03:11:00,
2013-01-27 21:16:00,31.6,29.8,29.70,SSW,195,0.0,1.0,93,0.00,,,0.10,Wunderground v.1.15,2013-01-28 03:16:00,
2013-01-27 21:21:00,31.6,29.8,29.70,SSW,195,0.0,1.0,93,0.00,,,0.10,Wunderground v.1.15,2013-01-28 03:21:00,
2013-01-27 21:26:00,31.6,29.8,29.70,SSW,195,0.0,1.0,93,0.00,,,0.10,Wunderground v.1.15,2013-01-28 03:26:00,
2013-01-27 21:31:00,31.5,29.7,29.70,SSW,196,0.0,1.0,93,0.00,,,0.10,Wunderground v.1.15,2013-01-28 03:31:00,
2013-01-27 21:37:00,31.5,29.7,29.70,SSW,195,0.0,1.0,93,0.00,,,0.10,Wunderground v.1.15,2013-01-28 03:37:00,
2013-01-27 21:42:00,31.5,29.7,29.69,SSW,195,0.0,1.0,93,0.00,,,0.10,Wunderground v.1.15,2013-01-28 03:42:00,
2013-01-27 21:47:00,31.5,29.7,29.69,SSW,195,0.0,1.0,93,0.00,,,0.10,Wunderground v.1.15,2013-01-28 03:47:00,
2013-01-27 21:52:00,31.4,29.6,29.69,SSW,195,0.0,1.0,93,0.00,,,0.10,Wunderground v.1.15,2013-01-28 03:52:00,
2013-01-27 21:57:00,31.4,29.6,29.69,SSW,195,0.0,1.0,93,0.00,,,0.10,Wunderground v.1.15,2013-01-28 03:57:00,
2013-01-27 22:03:00,31.4,29.6,29.69,SSW,195,0.0,1.0,93,0.00,,,0.10,Wunderground v.1.15,2013-01-28 04:03:00,
2013-01-27 22:08:00,31.3,29.5,29.69,SSW,195,0.0,1.0,93,0.00,,,0.10,Wunderground v.1.15,2013-01-28 04:08:00,
2013-01-27 22:13:00,31.3,29.5,29.69,SSW,195,0.0,1.0,93,0.00,,,0.10,Wunderground v.1.15,2013-01-28 04:13:00,
2013-01-27 22:18:00,31.3,29.5,29.69,SSW,195,0.0,1.0,93,0.00,,,0.10,Wunderground v.1.15,2013-01-28 04:18:00,
2013-01-27 22:23:00,31.3,29.5,29.69,SSW,196,0.0,1.0,93,0.00,,,0.10,Wunderground v.1.15,2013-01-28 04:23:00,
2013-01-27 22:29:00,31.3,29.5,29.69,SSW,195,0.0,1.0,93,0.00,,,0.10,Wunderground v.1.15,2013-01-28 04:29:00,
2013-01-27 22:34:00,31.3,29.5,29.69,SSW,195,0.0,1.0,93,0.00,,,0.10,Wunderground v.1.15,2013-01-28 04:34:00,
2013-01-27 22:39:00,31.3,29.5,29.69,SSW,195,0.0,1.0,93,0.00,,,0.10,Wunderground v.1.15,2013-01-28 04:39:00,
2013-01-27 22:44:00,31.3,29.5,29.68,SSW,195,0.0,1.0,93,0.00,,,0.10,Wunderground v.1.15,2013-01-28 04:44:00,
2013-01-27 22:49:00,31.3,29.5,29.68,SSW,196,0.0,1.0,93,0.00,,,0.10,Wunderground v.1.15,2013-01-28 04:49:00,
2013-01-27 22:55:00,31.2,29.4,29.68,SSW,195,0.0,1.0,93,0.00,,,0.10,Wunderground v.1.15,2013-01-28 04:55:00,
2013-01-27 23:01:00,31.2,29.4,29.68,SSW,196,0.0,1.0,93,0.00,,,0.10,Wunderground v.1.15,2013-01-28 05:01:00,
2013-01-27 23:03:00,31.2,29.4,29.69,SSW,195,0.0,1.0,93,0.00,,,0.10,Wunderground v.1.15,2013-01-28 05:03:00,
2013-01-27 23:07:00,31.2,29.4,29.68,SSW,195,0.0,1.0,93,0.00,,,0.10,Wunderground v.1.15,2013-01-28 05:07:00,
2013-01-27 23:08:00,31.2,29.4,29.68,SSW,195,0.0,1.0,93,0.00,,,0.10,Wunderground v.1.15,2013-01-28 05:08:00,
2013-01-27 23:14:00,31.2,29.4,29.69,SSW,195,0.0,1.0,93,0.00,,,0.10,Wunderground v.1.15,2013-01-28 05:14:00,
2013-01-27 23:19:00,31.2,29.4,29.69,SSW,195,0.0,1.0,93,0.00,,,0.10,Wunderground v.1.15,2013-01-28 05:19:00,
2013-01-27 23:24:00,31.2,29.4,29.69,SSW,195,0.0,1.0,93,0.00,,,0.10,Wunderground v.1.15,2013-01-28 05:24:00,
2013-01-27 23:29:00,31.1,29.3,29.69,SSW,195,0.0,1.0,93,0.00,,,0.10,Wunderground v.1.15,2013-01-28 05:29:00,
2013-01-27 23:34:00,31.2,29.4,29.69,SSW,195,0.0,1.0,93,0.00,,,0.10,Wunderground v.1.15,2013-01-28 05:34:00,
2013-01-27 23:40:00,31.1,29.3,29.70,SSW,196,0.0,1.0,93,0.00,,,0.10,Wunderground v.1.15,2013-01-28 05:40:00,
2013-01-27 23:45:00,31.1,29.3,29.70,SSW,195,0.0,1.0,93,0.00,,,0.10,Wunderground v.1.15,2013-01-28 05:45:00,
2013-01-27 23:50:00,31.1,29.3,29.70,SSW,195,0.0,1.0,93,0.00,,,0.10,Wunderground v.1.15,2013-01-28 05:50:00,
2013-01-27 23:55:00,31.0,29.2,29.70,SSW,195,0.0,1.0,93,0.00,,,0.10,Wunderground v.1.15,2013-01-28 05:55:00,